Location: PSU-Greenbush Astrophysical Observatory
(37.5140°N, 94.9880°W)
Time: 06:32:50
(UTC-06:00)

Transit 2A - Pass Details

Date: 31 January 2020
Orbit: 599 x 959 km, 66.7° (Epoch: 25 February)

Event Time Altitude Azimuth Distance (km) Brightness Sun altitude
Rises 02:09:10 0° 352° (N) 3,003 - -61.0°
Reaches altitude 10° 02:13:02 10° 25° (NNE) 2,167 - -60.3°
Maximum altitude 02:14:51 12° 46° (NE) 2,079 - -60.1°
Drops below altitude 10° 02:16:43 10° 68° (ENE) 2,247 - -59.7°
Sets 02:20:56 0° 99° (E) 3,270 - -59.1°
